Stations météo

réclame
Mon MeteoGroup
Grünow, Allemagne (10289): Température de l'air & dewpoint: 10.11.2018 00:00:00 - 16.11.2018 00:00:00 (CET)Grünow, Allemagne (10289): Température de l'air 5cm & Température de l'air -5cm: 10.11.2018 00:00:00 - 16.11.2018 00:00:00 (CET)Grünow, Allemagne (10289): Température de l'air -20cm & Température de l'air -100cm: 10.11.2018 00:00:00 - 16.11.2018 00:00:00 (CET)Grünow, Allemagne (10289): Vitesse du vent & gusts: 10.11.2018 00:00:00 - 16.11.2018 00:00:00 (CET)Grünow, Allemagne (10289): Direction du vent: 10.11.2018 00:00:00 - 16.11.2018 00:00:00 (CET)Grünow, Allemagne (10289): reduced air pressure: 10.11.2018 00:00:00 - 16.11.2018 00:00:00 (CET)Grünow, Allemagne (10289): visibility: 10.11.2018 00:00:00 - 16.11.2018 00:00:00 (CET)Grünow, Allemagne (10289): Ensoleillement: 10.11.2018 00:00:00 - 16.11.2018 00:00:00 (CET)Grünow, Allemagne (10289): Quantités de précipitations: 10.11.2018 00:00:00 - 16.11.2018 00:00:00 (CET)
Date & Time tt [°C] td [°C] tt 5cm [°C] tt -5cm [°C] tt -20cm [°C] tt -100cm [°C] ff [km/h] ff [knt] fx [km/h] fx [knt] dd ppp [hPa] vv [km] sd [min] rr [mm]
16.11.2018 00:00:00 3,9 3,1 0,7 4,3 7,6 10,5 6 3 11 6 SE 1033,7 6 0 0,0
15.11.2018 23:00:00 4,3 3,2 2,2 4,8 7,7 10,5 9 5 16 9 SSE 1033,4 7 0 0,0
15.11.2018 22:00:00 5,0 3,8 3,6 5,3 7,8 10,5 10 5 20 11 SE 1033,2 8 0 0,0
15.11.2018 21:00:00 5,7 4,5 4,4 5,6 8,0 10,5 10 6 22 12 SE 1032,8 8 0 0,0
15.11.2018 20:00:00 5,8 4,5 4,8 5,8 8,1 10,5 15 8 22 12 ESE 1032,4 11 0 0,0
15.11.2018 19:00:00 6,0 4,2 5,1 6,2 8,3 10,5 15 8 21 12 ESE 1032,0 18 0 0,0
15.11.2018 18:00:00 6,3 4,2 4,9 6,7 8,4 10,5 14 7 20 11 ESE 1031,8 28 0 0,0
15.11.2018 17:00:00 7,0 5,1 5,6 7,4 8,5 10,5 11 6 16 8 ESE 1031,6 19 1 0,0
15.11.2018 16:00:00 8,0 5,5 7,2 8,4 8,4 10,5 11 6 23 12 ESE 1031,4 30 22 0,0
15.11.2018 15:00:00 9,6 5,7 9,1 9,8 8,3 10,5 14 8 22 12 ESE 1031,2 27 49 0,0
15.11.2018 14:00:00 9,1 7,4 9,5 9,6 8,2 10,5 14 7 20 11 E 1031,2 12 26 0,0
15.11.2018 13:00:00 9,7 6,8 9,9 9,5 8,0 10,5 12 6 19 10 SE 1031,3 22 14 0,0
15.11.2018 12:00:00 9,2 6,7 10,0 8,8 7,8 10,5 13 7 18 10 SSE 1031,5 23 4 0,0
15.11.2018 11:00:00 8,2 6,3 8,2 8,0 7,7 10,5 13 7 19 10 SE 1031,5 16 0 0,0
15.11.2018 10:00:00 7,7 5,8 7,2 7,0 7,7 10,5 12 6 19 10 SE 1031,3 15 43 0,0
15.11.2018 09:00:00 5,9 5,4 5,8 6,2 7,7 10,5 8 5 17 9 SE 1031,0 8 15 0,0
15.11.2018 08:00:00 4,8 4,5 4,6 5,8 7,8 10,5 11 6 19 10 SE 1030,9 4,7 0 0,0
15.11.2018 07:00:00 4,8 4,5 4,6 5,7 7,9 10,5 14 7 19 11 SE 1030,5 3,0 0 0,0
15.11.2018 06:00:00 4,7 4,5 4,4 5,9 7,9 10,5 10 5 14 8 SE 1030,3 1,4 0 0,0
15.11.2018 05:00:00 5,3 5,0 4,8 6,1 8,0 10,5 7 4 13 7 SE 1030,1 4,0 0 0,0
15.11.2018 04:00:00 5,6 5,2 5,1 6,2 8,1 10,5 9 5 13 7 SE 1029,9 4,0 0 0,0
15.11.2018 03:00:00 5,5 5,1 4,7 6,3 8,2 10,5 9 5 12 6 SSE 1030,0 4,1 0 0,0
15.11.2018 02:00:00 5,6 5,2 4,9 6,6 8,2 10,5 7 4 10 5 SSE 1030,0 4,3 0 0,0
15.11.2018 01:00:00 6,2 5,6 5,7 6,8 8,3 10,5 6 3 10 5 SE 1030,1 5 0 0,0
15.11.2018 00:00:00 6,0 5,5 5,6 6,8 8,4 10,5 9 5 11 6 S 1030,1 5 0 0,0
14.11.2018 23:00:00 6,3 5,7 5,7 6,7 8,5 10,6 9 5 13 7 SSE 1030,0 6 0 0,0
14.11.2018 22:00:00 6,0 5,5 5,5 6,7 8,6 10,6 8 4 11 6 S 1030,0 5 0 0,0
14.11.2018 21:00:00 5,6 5,2 4,8 6,8 8,7 10,6 8 4 10 5 S 1030,2 6 0 0,0
14.11.2018 20:00:00 5,9 5,3 5,1 7,0 8,8 10,6 8 4 10 5 S 1029,8 7 0 0,0
14.11.2018 19:00:00 6,0 5,4 5,4 7,3 9,0 10,6 9 5 11 6 SSW 1029,7 6 0 0,0
14.11.2018 18:00:00 6,4 5,6 5,4 7,8 9,1 10,6 10 6 15 8 SW 1029,8 7 0 0,0
14.11.2018 17:00:00 7,0 6,2 6,0 8,4 9,2 10,6 9 5 16 8 SW 1029,6 9 0 0,0
14.11.2018 16:00:00 8,1 6,6 7,0 9,4 9,2 10,6 11 6 18 10 SW 1029,6 17 0 0,0
14.11.2018 15:00:00 9,2 7,0 8,7 10,2 9,1 10,6 12 6 21 11 SW 1029,0 24 0 0,0
14.11.2018 14:00:00 10,1 7,0 10,4 10,8 8,9 10,6 14 8 19 11 SW 1028,8 24 38 0,0
14.11.2018 13:00:00 10,2 7,4 10,9 10,8 8,7 10,6 15 8 21 12 WSW 1029,1 24 59 0,0
14.11.2018 12:00:00 10,5 7,3 11,6 10,0 8,6 10,6 15 8 19 10 WSW 1028,8 23 28 0,0
14.11.2018 11:00:00 9,2 7,5 9,6 8,8 8,5 10,6 10 5 18 10 W 1028,6 17 0 0,0
14.11.2018 10:00:00 8,7 6,9 8,9 8,2 8,5 10,6 11 6 20 11 WSW 1028,2 16 0 0,0
14.11.2018 09:00:00 8,4 6,8 8,2 7,9 8,5 10,6 16 9 23 12 W 1027,9 16 0 0,0
14.11.2018 08:00:00 8,3 6,7 7,9 7,7 8,5 10,6 18 10 25 14 W 1027,2 19 0 0,0
14.11.2018 07:00:00 8,4 6,7 7,8 7,7 8,5 10,6 16 9 29 16 W 1026,7 19 0 0,0
14.11.2018 06:00:00 8,4 6,7 7,9 7,7 8,6 10,6 20 11 29 16 WSW 1026,4 22 0 0,0
14.11.2018 05:00:00 8,3 6,7 7,7 7,6 8,6 10,6 20 11 29 16 WSW 1026,4 21 0 0,0
14.11.2018 04:00:00 8,1 6,4 7,2 7,5 8,6 10,6 22 12 34 19 WSW 1026,1 22 0 0,0
14.11.2018 03:00:00 8,2 6,3 7,4 7,4 8,7 10,6 21 12 32 17 WSW 1025,8 27 0 0,0
14.11.2018 02:00:00 8,0 6,4 7,4 7,4 8,7 10,6 19 10 27 14 WSW 1025,6 23 0 0,0
14.11.2018 01:00:00 7,8 6,2 7,0 7,3 8,8 10,6 18 10 29 15 WSW 1025,1 24 0 0,0
14.11.2018 00:00:00 7,6 6,1 6,5 7,2 9,0 10,6 21 11 29 16 WSW 1025,0 26 0 0,0
13.11.2018 23:00:00 8,1 6,4 6,7 7,6 9,1 10,6 19 10 29 16 WSW 1024,4 28 0 0,0
13.11.2018 22:00:00 8,5 6,8 7,3 7,9 9,2 10,5 19 10 27 15 SW 1024,0 29 0 0,0
13.11.2018 21:00:00 8,7 6,7 7,4 8,0 9,3 10,5 18 10 26 14 WSW 1023,6 35 0 0,0
13.11.2018 20:00:00 8,7 6,9 7,1 8,6 9,4 10,5 14 8 26 14 W 1023,3 33 0 0,0
13.11.2018 19:00:00 9,8 8,1 8,8 9,1 9,5 10,5 16 9 24 13 WSW 1022,9 18 0 0,0
13.11.2018 18:00:00 9,5 8,2 8,2 9,3 9,5 10,5 16 9 25 14 SSW 1022,2 15 0 0,0
13.11.2018 17:00:00 10,1 9,4 9,5 9,9 9,5 10,5 14 8 29 15 SSW 1021,9 9 0 0,9
13.11.2018 16:00:00 10,2 9,2 9,8 10,3 9,4 10,5 14 8 21 11 SW 1021,7 14 6 0,0
13.11.2018 15:00:00 10,6 9,2 10,6 10,7 9,3 10,5 14 8 20 11 SW 1021,1 17 24 0,0
13.11.2018 14:00:00 10,3 9,3 10,2 10,2 9,2 10,5 9 5 15 8 SW 1021,0 20 0 0,6
13.11.2018 13:00:00 10,2 9,5 10,0 10,1 9,2 10,5 11 6 16 9 WSW 1021,1 8 0 0,6
13.11.2018 12:00:00 10,2 9,7 10,2 9,8 9,1 10,5 8 5 11 6 WSW 1020,9 5 0 0,5
13.11.2018 11:00:00 10,0 9,6 9,9 9,4 9,1 10,5 7 4 13 7 SW 1020,8 4,7 0 0,9
13.11.2018 10:00:00 9,8 9,4 9,5 9,1 9,1 10,5 9 5 11 6 SW 1020,6 4,7 0 1,0
13.11.2018 09:00:00 9,4 9,0 9,2 9,0 9,1 10,5 5 3 9 5 SSW 1019,9 4,9 0 0,9
13.11.2018 08:00:00 9,4 9,0 9,0 8,9 9,1 10,5 7 4 11 6 SSW 1019,6 9 0 0,3
13.11.2018 07:00:00 9,5 9,0 8,9 9,0 9,1 10,5 5 3 11 6 S 1019,0 8 0 0,4
13.11.2018 06:00:00 9,7 9,0 9,1 9,1 9,1 10,5 9 5 13 7 SSW 1019,0 9 0 0,8
13.11.2018 05:00:00 9,9 8,8 9,2 9,0 9,1 10,5 10 6 15 8 SW 1018,7 12 0 0,2
13.11.2018 04:00:00 10,2 8,5 9,2 9,0 9,1 10,5 11 6 18 10 SW 1018,4 24 0 0,0
13.11.2018 03:00:00 10,6 7,9 10,0 8,9 9,1 10,6 13 7 20 11 SW 1018,5 28 0 0,0
13.11.2018 02:00:00 10,6 7,7 9,4 9,0 9,1 10,6 13 7 23 12 SSW 1017,7 30 0 0,0
13.11.2018 01:00:00 10,8 7,7 10,1 9,0 9,1 10,6 14 8 22 12 S 1017,2 29 0 0,0
13.11.2018 00:00:00 10,9 7,8 9,9 9,0 9,1 10,6 16 9 25 14 SSW 1017,1 27 0 0,0
12.11.2018 23:00:00 11,5 7,8 10,6 9,0 9,1 10,6 16 9 30 16 SSW 1016,7 30 0 0,0
12.11.2018 22:00:00 11,8 8,0 10,6 9,0 9,1 10,6 21 12 29 16 S 1016,3 29 0 0,0
12.11.2018 21:00:00 11,5 8,3 10,4 9,1 9,1 10,6 21 12 32 17 S 1016,0 23 0 0,0
12.11.2018 20:00:00 11,7 8,7 10,4 9,0 9,1 10,6 26 14 34 19 S 1015,8 22 0 0,0
12.11.2018 19:00:00 11,1 8,8 9,8 9,2 9,2 10,6 25 14 29 16 S 1015,8 20 0 0,0
12.11.2018 18:00:00 11,1 8,7 9,9 9,6 9,1 10,6 21 11 29 16 SSE 1016,0 21 0 0,0
12.11.2018 17:00:00 12,0 8,9 10,6 10,0 9,1 10,6 19 10 24 13 S 1016,2 27 0 0,0
12.11.2018 16:00:00 12,3 9,5 11,8 10,4 9,0 10,6 16 9 24 13 S 1016,0 23 13 0,0
12.11.2018 15:00:00 12,2 9,2 11,8 10,5 8,9 10,6 18 10 31 17 S 1016,1 23 0 0,0
12.11.2018 14:00:00 11,7 9,4 11,8 10,3 8,7 10,6 18 10 28 15 SSE 1016,4 20 0 0,0
12.11.2018 13:00:00 11,4 8,9 11,6 10,1 8,6 10,6 16 9 26 14 SE 1016,8 16 1 0,0
12.11.2018 12:00:00 10,1 8,3 10,4 9,1 8,5 10,6 14 7 29 16 SE 1017,6 14 0 0,0
12.11.2018 11:00:00 9,1 7,9 9,0 8,6 8,5 10,6 20 11 28 15 SSE 1018,2 11 0 0,0
12.11.2018 10:00:00 8,8 7,7 8,7 8,2 8,4 10,6 9 5 12 7 SE 1017,8 10 0 0,0
12.11.2018 09:00:00 8,4 7,5 8,1 7,9 8,4 10,6 10 5 21 11 SSE 1017,9 9 0 0,0
12.11.2018 08:00:00 8,1 7,2 7,6 7,7 8,4 10,6 13 7 21 11 SSE 1017,5 8 0 0,0
12.11.2018 07:00:00 8,1 7,2 7,6 7,7 8,4 10,6 14 8 18 10 SSE 1017,1 10 0 0,0
12.11.2018 06:00:00 7,9 7,1 7,4 7,9 8,4 10,6 9 5 15 8 SSE 1016,7 8 0 0,0
12.11.2018 05:00:00 8,7 7,5 8,0 8,1 8,4 10,6 12 7 25 13 S 1016,7 12 0 0,0
12.11.2018 04:00:00 8,7 7,5 8,2 8,2 8,4 10,6 20 11 25 14 SSE 1016,2 13 0 0,1
12.11.2018 03:00:00 9,3 8,3 8,7 8,2 8,3 10,6 14 8 25 14 S 1016,1 14 0 1,1
12.11.2018 02:00:00 9,3 8,4 8,8 7,9 8,3 10,6 14 7 21 11 S 1016,3 10 0 1,0
12.11.2018 01:00:00 9,3 8,1 8,4 7,5 8,3 10,6 15 8 22 12 S 1015,6 12 0 0,4
12.11.2018 00:00:00 8,1 7,1 7,4 7,2 8,3 10,6 12 7 20 11 SSE 1015,0 11 0 0,0
11.11.2018 23:00:00 8,2 7,1 7,4 7,0 8,3 10,6 16 8 22 12 S 1014,7 13 0 0,0
11.11.2018 22:00:00 7,6 6,7 6,6 6,7 8,4 10,6 19 10 23 12 SSE 1014,4 11 0 0,0
11.11.2018 21:00:00 7,7 6,7 6,6 6,8 8,4 10,6 19 10 25 13 S 1014,2 10 0 0,0
11.11.2018 20:00:00 7,0 6,5 6,1 6,6 8,5 10,6 16 9 23 12 SSE 1014,1 6 0 0,0
11.11.2018 19:00:00 7,3 6,7 6,2 6,8 8,6 10,6 19 10 26 14 SSE 1013,3 6 0 0,0
11.11.2018 18:00:00 7,1 6,6 6,0 7,1 8,7 10,6 16 9 22 12 SSE 1013,3 4,0 0 0,0
11.11.2018 17:00:00 7,3 6,7 6,3 7,9 8,7 10,6 16 8 29 15 S 1013,3 4,5 0 0,0
11.11.2018 16:00:00 8,2 7,4 8,0 8,6 8,7 10,7 19 11 26 14 SSE 1012,4 6 42 0,2
11.11.2018 15:00:00 7,7 7,0 7,5 8,5 8,7 10,7 16 9 23 12 SE 1011,9 3,5 0 0,7
11.11.2018 14:00:00 7,7 7,0 7,7 8,5 8,6 10,7 15 8 26 14 S 1012,8 4,7 0 1,0
11.11.2018 13:00:00 7,5 6,3 7,4 8,7 8,6 10,7 19 10 27 14 SSE 1011,6 7 0 0,2
11.11.2018 12:00:00 7,7 6,2 8,2 8,6 8,5 10,7 20 11 27 14 SSE 1011,9 8 0 0,0
11.11.2018 11:00:00 7,4 6,1 8,2 8,2 8,5 10,7 18 10 29 16 SE 1011,4 7 0 0,0
11.11.2018 10:00:00 6,6 5,8 6,9 7,6 8,5 10,7 18 10 26 14 SSE 1011,6 4,5 0 0,0
11.11.2018 09:00:00 6,3 5,8 6,4 7,5 8,5 10,7 15 8 26 14 SE 1011,3 3,2 0 0,0
11.11.2018 08:00:00 5,9 5,7 6,1 7,3 8,5 10,7 16 9 25 14 SSE 1011,6 1,4 0 0,0
11.11.2018 07:00:00 5,8 5,6 5,9 7,4 8,6 10,7 18 10 27 15 SE 1011,2 0,7 0 0,0
11.11.2018 06:00:00 6,2 6,0 6,2 7,5 8,6 10,7 17 9 28 15 SSE 1011,0 1,6 0 0,0
11.11.2018 05:00:00 6,5 6,4 6,5 7,7 8,6 10,7 18 10 27 14 SSE 1010,9 1,4 0 0,0
11.11.2018 04:00:00 6,7 6,6 6,7 7,7 8,6 10,7 15 8 27 14 SE 1010,8 0,4 0 0,0
11.11.2018 03:00:00 6,8 6,7 6,8 7,8 8,6 10,7 16 9 26 14 SE 1010,7 0,3 0 0,0
11.11.2018 02:00:00 7,0 6,8 7,1 7,8 8,7 10,7 16 8 27 15 SSE 1010,9 1,3 0 0,0
11.11.2018 01:00:00 7,1 6,8 7,1 7,7 8,7 10,7 19 11 28 15 SSE 1010,9 1,1 0 0,0
11.11.2018 00:00:00 7,2 6,9 7,2 7,7 8,7 10,7 14 8 27 14 SSE 1011,2 1,8 0 0,0
10.11.2018 23:00:00 7,2 7,0 7,0 7,6 8,8 10,7 20 11 34 18 SSE 1010,9 1,1 0 0,0
10.11.2018 22:00:00 7,0 6,8 6,8 7,4 8,8 10,7 19 11 28 15 SE 1011,0 1,2 0 0,0
10.11.2018 21:00:00 7,8 6,8 6,9 7,7 8,9 10,7 14 8 26 14 SE 1010,7 5 0 0,0
10.11.2018 20:00:00 8,6 7,3 7,6 7,9 8,9 10,7 12 7 24 13 SE 1010,8 6 0 0,0
10.11.2018 19:00:00 9,1 7,6 8,4 8,0 9,0 10,7 14 8 21 11 SE 1010,7 7 0 0,0
10.11.2018 18:00:00 8,5 7,2 7,0 8,2 9,0 10,7 11 6 24 13 SSE 1011,0 7 0 0,0
10.11.2018 17:00:00 9,4 7,7 8,1 8,6 9,1 10,7 13 7 29 16 SSE 1010,5 8 0 0,0
10.11.2018 16:00:00 8,8 7,8 6,8 9,2 9,1 10,7 5 3 15 8 SSE 1010,8 4,8 0 0,0
10.11.2018 15:00:00 9,8 7,9 9,1 9,9 9,0 10,7 13 7 29 16 S 1010,8 7 32 0,0
10.11.2018 14:00:00 9,6 7,7 9,6 10,0 8,9 10,7 19 11 28 15 SE 1010,4 7 2 0,0
10.11.2018 13:00:00 9,1 7,6 9,0 9,6 8,8 10,7 19 11 26 14 SSE 1011,1 6 0 0,0
10.11.2018 12:00:00 8,6 7,5 8,7 9,3 8,8 10,7 16 9 27 14 SSE 1011,7 4,5 0 0,0
10.11.2018 11:00:00 8,3 7,6 8,5 8,9 8,7 10,7 16 9 29 16 SSE 1012,1 3,6 0 0,0
10.11.2018 10:00:00 7,8 7,4 8,1 8,5 8,7 10,7 19 10 29 16 SSE 1012,1 3,2 0 0,0
10.11.2018 09:00:00 7,6 7,5 7,7 8,2 8,7 10,7 19 10 26 14 SSE 1012,2 1,0 0 0,0
10.11.2018 08:00:00 7,1 7,0 7,3 8,0 8,7 10,7 16 9 26 14 SSE 1012,2 0,5 0 0,0
10.11.2018 07:00:00 7,4 7,2 7,4 8,1 8,7 10,7 14 7 24 13 SE 1011,8 0,7 0 0,0
10.11.2018 06:00:00 7,4 7,1 7,4 8,1 8,7 10,7 15 8 24 13 SSE 1012,2 1,0 0 0,0
10.11.2018 05:00:00 7,4 7,1 7,4 8,1 8,7 10,7 16 8 22 12 SSE 1012,6 2,2 0 0,0
10.11.2018 04:00:00 7,4 7,2 7,4 8,1 8,8 10,7 14 7 22 12 SSE 1013,2 2,4 0 0,0
10.11.2018 03:00:00 7,4 7,2 7,4 8,1 8,8 10,7 12 6 18 10 SSE 1013,5 2,6 0 0,0
10.11.2018 02:00:00 7,3 7,2 7,3 8,1 8,8 10,7 14 8 24 13 SE 1013,8 2,3 0 0,0
10.11.2018 01:00:00 7,3 7,3 7,3 8,1 8,8 10,7 17 9 26 14 SE 1014,0 1,3 0 0,0
10.11.2018 00:00:00 7,3 7,3 7,4 8,2 8,8 10,7 17 9 24 13 ESE 1014,1 0,2 0 0,0

tt = Température de l'air
td = dewpoint
tt 5cm = Température de l'air 5cm
tt -5cm = Température de l'air -5cm
tt -20cm = Température de l'air -20cm
tt -100cm = Température de l'air -100cm
ff = Vitesse du vent
fx = gusts
dd = Direction du vent
ppp = reduced air pressure
vv = visibility
sd = Ensoleillement
rr = Quantités de précipitations

stations d'obs. à proximité